Rural Retreat, VA

7:33 PM EST on February 26, 2017 (GMT -0500)
Mountain Empire

Weather History for KMKJ - August, 2013

Change the Weather History Date:

Tuesday, August 6, 2013

  Actual Average (KBLF) Record (KBLF)
Temperature  
Mean Temperature 72 °F -  
Max Temperature 82 °F 77 °F 88 °F (1987)
Min Temperature 62 °F 61 °F 50 °F (1997)
Cooling Degree Days 6    
Growing Degree Days 22 (Base 50)    
Moisture  
Dew Point 65 °F    
Average Humidity 82    
Maximum Humidity 100    
Minimum Humidity 52    
Precipitation  
Precipitation 0.00 in - - ()
Sea Level Pressure  
Sea Level Pressure 30.11 in    
Wind  
Wind Speed 2 mph (WSW)    
Max Wind Speed 9 mph    
Max Gust Speed -    
Visibility 9 miles    
Events      
Averages and records for this station are not official NWS values.
T = Trace of Precipitation, MM = Missing Value Source: NWS Daily Summary

Daily Weather History Graph

Daily Weather History Graph

Search for Another Location

Airport or City:

Trip Planner

Search our weather history database for the weather conditions in past years. The results will help you decide how hot, cold, wet, or windy it might be!

Date:

Astronomy

Aug. 06, 2013 Rise Set
Actual Time 6:35 AM EDT 8:26 PM EDT
Civil Twilight 6:06 AM EDT 8:54 PM EDT
Nautical Twilight 5:32 AM EDT 9:29 PM EDT
Astronomical Twilight 4:55 AM EDT 10:05 PM EDT
Moon 6:23 AM EDT (8/6) 8:03 PM EDT (8/6)
Length of Visible Light 14h 48m
Length of Day
13h 51m
Waning Crescent, 0% of the Moon is Illuminated
Aug 6
Waning Crescent
Aug 6
New
Aug 14
First Quarter
Aug 20
Full
Aug 28
Last Quarter

Hourly Weather History & Observations

Time (EDT) Temp. Heat Index Dew Point Humidity Pressure Visibility Wind Dir Wind Speed Gust Speed Precip Events Conditions
12:15 AM 63.0 °F - 63.0 °F 100% 30.09 in 10.0 mi Calm Calm - N/A   Clear
12:35 AM 63.5 °F - 63.5 °F 100% 30.09 in 10.0 mi Calm Calm - N/A   Clear
12:55 AM 63.0 °F - 63.0 °F 100% 30.11 in 10.0 mi Calm Calm - N/A   Mostly Cloudy
1:15 AM 63.0 °F - 63.0 °F 100% 30.09 in 10.0 mi Calm Calm - N/A   Mostly Cloudy
1:35 AM 63.0 °F - 63.0 °F 100% 30.09 in 7.0 mi Calm Calm - N/A   Overcast
1:55 AM 64.4 °F - 64.4 °F 100% 30.09 in 10.0 mi Calm Calm - N/A   Overcast
2:15 AM 64.6 °F - 64.6 °F 100% 30.08 in 10.0 mi Calm Calm - N/A   Mostly Cloudy
2:35 AM 64.0 °F - 64.0 °F 100% 30.08 in 7.0 mi Calm Calm - N/A   Scattered Clouds
2:55 AM 63.7 °F - 63.7 °F 100% 30.08 in 7.0 mi Calm Calm - N/A   Mostly Cloudy
3:15 AM 63.3 °F - 63.3 °F 100% 30.08 in 7.0 mi Calm Calm - N/A   Mostly Cloudy
3:35 AM 63.5 °F - 63.5 °F 100% 30.08 in 7.0 mi Calm Calm - N/A   Mostly Cloudy
3:55 AM 63.5 °F - 63.5 °F 100% 30.07 in 7.0 mi Calm Calm - N/A   Mostly Cloudy
4:15 AM 63.1 °F - 63.1 °F 100% 30.07 in 7.0 mi Calm Calm - N/A   Scattered Clouds
4:35 AM 62.6 °F - 62.6 °F 100% 30.08 in 3.0 mi Calm Calm - N/A   Clear
4:55 AM 62.6 °F - 62.6 °F 100% 30.09 in 3.0 mi Calm Calm - N/A   Scattered Clouds
5:15 AM 62.8 °F - 62.8 °F 100% 30.10 in 5.0 mi Calm Calm - N/A   Mostly Cloudy
5:35 AM 62.4 °F - 62.4 °F 100% 30.10 in 4.0 mi Calm Calm - N/A   Mostly Cloudy
5:55 AM 62.8 °F - 62.8 °F 100% 30.09 in 5.0 mi Calm Calm - N/A   Mostly Cloudy
6:15 AM 62.6 °F - 62.6 °F 100% 30.09 in 5.0 mi Calm Calm - N/A   Scattered Clouds
6:35 AM 62.1 °F - 62.1 °F 100% 30.09 in 1.8 mi Calm Calm - N/A   Overcast
6:55 AM 62.4 °F - 62.4 °F 100% 30.10 in 2.5 mi Calm Calm - N/A   Overcast
7:15 AM 62.8 °F - 62.8 °F 100% 30.10 in 4.0 mi Calm Calm - N/A   Overcast
7:35 AM 63.5 °F - 63.5 °F 100% 30.10 in 4.0 mi Calm Calm - N/A   Mostly Cloudy
7:55 AM 64.4 °F - 64.4 °F 100% 30.12 in 4.0 mi Calm Calm - N/A   Overcast
8:15 AM 65.1 °F - 65.1 °F 100% 30.12 in 4.0 mi Calm Calm - N/A   Overcast
8:35 AM 66.6 °F - 66.6 °F 100% 30.12 in 5.0 mi Calm Calm - N/A   Overcast
8:55 AM 68.4 °F - 66.6 °F 94% 30.12 in 10.0 mi Calm Calm - N/A   Mostly Cloudy
9:15 AM 72.3 °F - 65.1 °F 78% 30.12 in 10.0 mi West 4.6 mph - N/A   Mostly Cloudy
9:35 AM 73.2 °F - 64.2 °F 73% 30.12 in 10.0 mi West 4.6 mph - N/A   Mostly Cloudy
9:55 AM 73.8 °F - 64.6 °F 73% 30.13 in 10.0 mi WSW 4.6 mph - N/A   Overcast
10:15 AM 74.3 °F - 64.8 °F 72% 30.14 in 10.0 mi SW 4.6 mph - N/A   Overcast
10:35 AM 74.7 °F - 63.5 °F 68% 30.14 in 10.0 mi SW 6.9 mph - N/A   Overcast
10:55 AM 75.4 °F - 63.9 °F 67% 30.14 in 10.0 mi WSW 4.6 mph - N/A   Overcast
11:15 AM 75.9 °F - 62.6 °F 63% 30.15 in 10.0 mi SW 8.1 mph - N/A   Overcast
11:35 AM 77.4 °F - 63.7 °F 63% 30.13 in 10.0 mi WSW 8.1 mph - N/A   Overcast
11:55 AM 77.0 °F - 63.0 °F 62% 30.13 in 10.0 mi SW 6.9 mph - N/A   Overcast
12:15 PM 77.7 °F - 63.3 °F 61% 30.13 in 10.0 mi WSW 9.2 mph - N/A   Overcast
12:35 PM 77.9 °F - 63.3 °F 61% 30.13 in 10.0 mi West 4.6 mph - N/A   Overcast
12:55 PM 79.0 °F - 63.9 °F 60% 30.13 in 10.0 mi WSW 8.1 mph - N/A   Overcast
1:15 PM 78.6 °F - 64.9 °F 63% 30.12 in 10.0 mi SSW 5.8 mph - N/A   Overcast
1:35 PM 78.3 °F - 63.9 °F 61% 30.12 in 10.0 mi SSW 6.9 mph - N/A   Overcast
1:55 PM 78.4 °F - 64.4 °F 62% 30.13 in 10.0 mi WSW 8.1 mph - N/A   Overcast
2:15 PM 78.6 °F - 64.8 °F 62% 30.13 in 10.0 mi West 6.9 mph - N/A   Overcast
2:35 PM 79.9 °F - 65.1 °F 61% 30.12 in 10.0 mi WSW 3.5 mph - N/A   Overcast
2:55 PM 79.7 °F - 63.3 °F 57% 30.12 in 10.0 mi SW 6.9 mph - N/A   Overcast
3:15 PM 79.7 °F - 63.0 °F 56% 30.11 in 10.0 mi SW 3.5 mph - N/A   Overcast
3:35 PM 80.6 °F 81.9 °F 63.0 °F 55% 30.11 in 10.0 mi WSW 6.9 mph - N/A   Overcast
3:55 PM 81.7 °F 82.9 °F 62.8 °F 53% 30.10 in 10.0 mi WSW 5.8 mph - N/A   Mostly Cloudy
4:15 PM 81.7 °F 83.0 °F 63.3 °F 54% 30.10 in 10.0 mi West 8.1 mph - N/A   Scattered Clouds
4:35 PM 81.9 °F 82.9 °F 62.8 °F 52% 30.10 in 10.0 mi WSW 3.5 mph - N/A   Clear
4:55 PM 81.0 °F 82.2 °F 63.1 °F 54% 30.10 in 10.0 mi WNW 4.6 mph - N/A   Mostly Cloudy
5:15 PM 80.8 °F 82.1 °F 63.1 °F 55% 30.10 in 10.0 mi West 6.9 mph - N/A   Overcast
5:35 PM 79.3 °F - 64.8 °F 61% 30.10 in 10.0 mi West 4.6 mph - N/A   Overcast
5:55 PM 79.5 °F - 65.5 °F 62% 30.10 in 10.0 mi WNW 3.5 mph - N/A   Overcast
6:15 PM 78.8 °F - 64.9 °F 62% 30.10 in 10.0 mi WNW 3.5 mph - N/A   Overcast
6:35 PM 79.0 °F - 66.4 °F 65% 30.10 in 10.0 mi NW 3.5 mph - N/A   Overcast
6:55 PM 78.3 °F - 67.1 °F 68% 30.11 in 10.0 mi WNW 3.5 mph - N/A   Overcast
7:15 PM 77.5 °F - 67.3 °F 71% 30.11 in 10.0 mi Calm Calm - N/A   Overcast
7:35 PM 77.0 °F - 67.3 °F 72% 30.11 in 10.0 mi Calm Calm - N/A   Overcast
7:55 PM 76.3 °F - 68.0 °F 75% 30.11 in 10.0 mi Calm Calm - N/A   Overcast
8:15 PM 74.8 °F - 69.8 °F 84% 30.11 in 10.0 mi Calm Calm - N/A   Overcast
8:35 PM 75.0 °F - 70.0 °F 84% 30.11 in 10.0 mi Calm Calm - N/A   Scattered Clouds
8:55 PM 73.8 °F - 69.8 °F 87% 30.11 in 10.0 mi Calm Calm - N/A   Mostly Cloudy
9:15 PM 72.7 °F - 70.0 °F 91% 30.12 in 10.0 mi Calm Calm - N/A   Mostly Cloudy
9:35 PM 71.4 °F - 70.9 °F 98% 30.12 in 10.0 mi Calm Calm - N/A   Scattered Clouds
9:55 PM 71.6 °F - 70.0 °F 95% 30.12 in 10.0 mi Calm Calm - N/A   Clear
10:15 PM 71.8 °F - 69.1 °F 91% 30.12 in 10.0 mi Calm Calm - N/A   Mostly Cloudy
10:35 PM 70.9 °F - 68.9 °F 93% 30.12 in 10.0 mi Calm Calm - N/A   Mostly Cloudy
10:55 PM 71.2 °F - 68.9 °F 92% 30.12 in 10.0 mi Calm Calm - N/A   Mostly Cloudy
11:15 PM 70.9 °F - 68.9 °F 93% 30.13 in 10.0 mi Calm Calm - N/A   Scattered Clouds
11:35 PM 70.5 °F - 68.9 °F 95% 30.13 in 10.0 mi Calm Calm - N/A   Mostly Cloudy
11:55 PM 70.7 °F - 68.5 °F 93% 30.13 in 10.0 mi NE 4.6 mph - N/A   Mostly Cloudy